Date,TemperatureHighF,TemperatureAvgF,TemperatureLowF,DewpointHighF,DewpointAvgF,DewpointLowF,HumidityHigh,HumidityAvg,HumidityLow,PressureMaxIn,PressureMinIn,WindSpeedMaxMPH,WindSpeedAvgMPH,GustSpeedMaxMPH,PrecipitationSumIn
2013-1-1,18.0,11.4,6.0,13.0,7.1,2.0,86,82,79,30.26,30.17,6,2,8,0.02
2013-1-2,20.0,10.7,5.0,16.0,6.2,1.0,88,81,73,30.27,30.22,2,0,3,0.04
2013-1-3,13.0,9.0,3.0,7.0,3.4,-1.0,83,77,71,30.25,30.22,16,6,21,0.01
2013-1-4,16.0,9.0,4.0,7.0,2.9,-1.0,82,76,67,30.23,30.17,12,5,16,0.00
2013-1-5,17.0,9.7,3.0,6.0,2.3,-1.0,83,72,51,30.27,30.10,16,8,23,0.00
2013-1-6,26.0,17.5,9.0,12.0,6.3,1.0,71,61,47,30.10,29.93,22,10,31,0.00
2013-1-7,24.0,17.0,14.0,15.0,10.4,6.0,89,75,58,30.04,29.97,14,4,22,0.00
2013-1-8,27.0,21.2,15.0,26.0,19.2,12.0,95,91,86,30.23,29.99,18,8,23,0.00
2013-1-9,37.0,30.9,25.0,26.0,23.6,20.0,95,75,51,30.23,29.69,23,17,35,0.00
2013-1-10,36.0,23.9,14.0,29.0,18.5,11.0,92,81,53,29.69,29.47,21,14,32,0.00
2013-1-11,14.0,9.1,2.0,11.0,5.3,-3.0,87,84,80,29.78,29.44,21,8,34,0.00
2013-1-12,6.0,1.9,-2.0,2.0,-3.0,-7.0,83,80,77,29.90,29.78,7,3,11,0.00
2013-1-13,4.0,0.1,-4.0,-1.0,-4.9,-10.0,82,79,76,30.01,29.89,5,2,7,0.00
2013-1-14,4.0,0.1,-3.0,-1.0,-4.8,-8.0,81,78,77,30.15,30.01,10,2,15,0.00
2013-1-15,9.0,5.2,0.0,5.0,0.8,-5.0,84,82,78,30.41,30.14,14,8,20,0.00
2013-1-16,16.0,11.4,8.0,13.0,7.9,4.0,88,85,83,30.47,30.41,15,7,22,0.00
2013-1-17,20.0,13.7,9.0,18.0,10.5,5.0,90,87,84,30.46,30.33,8,4,12,0.00
2013-1-18,17.0,11.7,5.0,14.0,8.2,1.0,88,85,81,30.34,30.24,10,5,21,0.00
2013-1-19,22.0,13.3,8.0,17.0,8.5,3.0,85,81,72,30.36,30.27,12,6,20,0.00
2013-1-20,25.0,18.5,11.0,14.0,9.6,6.0,82,68,48,30.34,30.28,9,4,13,0.00
2013-1-21,25.0,16.1,10.0,12.0,7.8,4.0,78,69,54,30.31,30.21,18,6,25,0.00
2013-1-22,28.0,20.4,10.0,11.0,7.5,3.0,74,57,44,30.24,30.16,22,12,33,0.00
2013-1-23,33.0,27.4,18.0,12.0,8.9,6.0,61,45,36,30.17,30.07,23,18,30,0.00
2013-1-24,32.0,29.8,27.0,32.0,23.4,10.0,98,79,44,30.20,30.06,20,9,29,0.00
2013-1-25,35.0,32.9,31.0,35.0,32.3,31.0,100,98,92,30.21,29.99,21,12,27,0.01
2013-1-26,36.0,34.3,32.0,36.0,33.8,32.0,100,98,93,30.00,29.73,21,12,27,0.08
2013-1-27,34.0,25.1,19.0,34.0,24.0,17.0,100,95,91,29.76,29.65,16,10,23,0.05
2013-1-28,20.0,18.1,17.0,18.0,16.1,15.0,92,91,90,29.80,29.72,16,9,25,0.00
2013-1-29,22.0,19.0,16.0,20.0,17.0,14.0,94,91,90,29.99,29.67,10,3,14,0.02
2013-1-30,30.0,27.0,18.0,30.0,26.3,16.0,100,97,91,30.06,29.96,29,14,39,0.01
2013-1-31,32.0,30.1,28.0,32.0,29.9,28.0,99,99,97,30.21,30.13,20,12,32,0.01
2013-2-1,32.0,30.5,29.0,32.0,29.0,25.0,99,94,85,30.31,30.10,15,10,24,0.00
2013-2-2,32.0,27.7,23.0,27.0,24.0,21.0,93,86,75,30.38,30.24,15,6,19,0.01
2013-2-3,34.0,25.5,20.0,25.0,20.8,18.0,92,83,63,30.24,30.06,12,4,18,0.04
2013-2-4,28.0,23.8,20.0,23.0,18.8,16.0,90,81,71,30.09,30.01,18,8,25,0.02
2013-2-5,36.0,30.3,25.0,20.0,18.7,17.0,82,62,50,30.05,29.82,21,15,29,0.00
2013-2-6,36.0,28.5,23.0,26.0,23.3,18.0,95,81,56,30.07,29.84,16,8,23,0.00
2013-2-7,29.0,25.5,19.0,18.0,14.6,8.0,85,65,42,30.07,29.78,21,14,29,0.00
2013-2-8,33.0,28.3,25.0,29.0,17.5,7.0,96,67,38,29.78,29.58,16,7,22,0.02
2013-2-9,25.0,21.6,20.0,21.0,18.7,16.0,93,89,75,29.71,29.54,17,11,26,0.02
2013-2-10,22.0,19.3,15.0,19.0,12.7,0.0,92,76,48,29.93,29.71,13,7,23,0.00
2013-2-11,22.0,17.2,14.0,11.0,1.1,-8.0,70,49,32,30.08,29.92,8,4,19,0.00
2013-2-12,20.0,16.4,12.0,15.0,9.1,2.0,87,73,62,30.19,30.08,14,7,19,0.00
2013-2-13,31.0,23.7,17.0,23.0,18.2,13.0,85,80,69,30.18,30.07,19,9,32,0.00
2013-2-14,30.0,26.9,21.0,24.0,22.0,18.0,94,82,66,30.28,30.08,17,8,27,0.00
2013-2-15,32.0,26.7,21.0,23.0,20.9,17.0,90,79,67,30.40,30.28,17,6,24,0.00
2013-2-16,32.0,26.6,21.0,23.0,20.2,17.0,90,77,64,30.33,29.86,25,18,31,0.00
2013-2-17,31.0,25.8,23.0,26.0,17.5,10.0,88,71,49,29.93,29.77,26,13,37,0.00
2013-2-18,25.0,22.3,18.0,17.0,14.1,7.0,83,70,57,29.98,29.78,15,10,24,0.00
2013-2-19,33.0,28.1,21.0,25.0,11.9,3.0,83,51,38,29.78,29.52,19,12,27,0.00
2013-2-20,31.0,23.8,19.0,23.0,18.7,13.0,93,82,49,29.70,29.51,17,8,26,0.00
2013-2-21,22.0,19.1,17.0,18.0,15.3,11.0,91,84,71,29.86,29.70,18,9,25,0.01
2013-2-22,24.0,21.7,19.0,21.0,19.0,16.0,93,89,77,29.97,29.83,17,9,28,0.03
2013-2-23,23.0,20.5,18.0,21.0,18.4,15.0,97,91,87,29.85,29.57,27,14,38,0.01
2013-2-24,21.0,16.9,11.0,19.0,11.4,5.0,90,79,69,30.10,29.85,13,6,17,0.01
2013-2-25,21.0,17.6,13.0,19.0,12.4,8.0,92,80,70,30.10,29.86,22,13,31,0.00
2013-2-26,21.0,19.1,17.0,19.0,16.8,13.0,92,90,82,30.18,29.88,14,7,21,0.00
2013-2-27,22.0,17.0,11.0,14.0,11.6,7.0,87,80,68,30.27,30.18,19,11,26,0.00
2013-2-28,26.0,20.7,16.0,21.0,13.7,9.0,92,75,59,30.37,30.22,22,16,30,0.00
2013-3-1,36.0,28.9,23.0,30.0,26.3,21.0,97,90,79,30.43,30.36,15,6,21,0.00
2013-3-2,39.0,34.7,31.0,30.0,28.3,27.0,87,78,67,30.41,29.98,20,15,28,0.00
2013-3-3,40.0,33.7,25.0,34.0,26.8,6.0,99,76,40,29.98,29.78,25,13,37,0.06
2013-3-4,27.0,21.9,17.0,13.0,8.3,5.0,76,56,42,30.13,29.85,11,5,19,0.01
2013-3-5,35.0,26.2,17.0,15.0,10.0,6.0,65,51,36,30.12,29.84,22,15,32,0.00
2013-3-6,43.0,34.4,26.0,30.0,21.6,11.0,97,63,37,29.87,29.68,21,12,31,0.00
2013-3-7,35.0,29.2,24.0,25.0,22.2,18.0,87,75,53,29.93,29.82,10,3,15,0.12
2013-3-8,34.0,31.1,29.0,34.0,29.1,25.0,99,92,76,29.82,29.72,14,7,19,0.01
2013-3-9,35.0,29.3,23.0,28.0,18.2,12.0,96,65,41,30.17,29.76,14,7,23,0.01
2013-3-10,39.0,30.7,25.0,21.0,18.1,8.0,74,60,29,30.27,30.16,20,9,29,0.00
2013-3-11,40.0,36.9,34.0,32.0,23.5,10.0,78,60,31,30.16,30.05,23,16,32,0.03
2013-3-12,41.0,35.5,29.0,31.0,27.2,23.0,81,72,61,30.22,30.10,16,8,22,0.01
2013-3-13,49.0,43.2,36.0,33.0,31.5,29.0,78,64,51,30.28,30.19,16,12,27,0.00
2013-3-14,52.0,47.0,39.0,33.0,30.2,28.0,65,52,41,30.24,30.11,16,12,23,0.00
2013-3-15,51.0,47.8,44.0,30.0,24.4,21.0,52,40,31,30.13,29.98,19,8,29,0.00
2013-3-16,46.0,40.1,33.0,32.0,21.6,17.0,91,48,32,29.99,29.74,20,10,29,0.01
2013-3-17,35.0,28.8,24.0,33.0,14.7,3.0,97,58,31,29.88,29.66,37,21,52,0.04
2013-3-18,35.0,27.3,20.0,17.0,11.5,5.0,63,51,38,29.98,29.86,30,16,47,0.00
2013-3-19,43.0,33.3,25.0,13.0,8.0,3.0,58,36,20,30.15,29.98,14,6,24,0.00
2013-3-20,39.0,34.1,30.0,37.0,22.1,-2.0,100,72,19,30.05,29.76,18,13,26,0.09
2013-3-21,26.0,24.9,23.0,19.0,13.4,10.0,77,61,53,29.86,29.83,28,20,40,0.25
2013-3-22,22.0,19.6,18.0,19.0,15.3,9.0,91,83,59,29.88,29.75,18,9,26,0.00
2013-3-23,24.0,18.6,14.0,18.0,14.1,10.0,91,83,56,30.06,29.88,11,5,17,0.04
2013-3-24,28.0,20.2,14.0,16.0,9.0,2.0,89,64,36,30.09,30.03,8,3,12,0.01
2013-3-25,38.0,25.9,15.0,17.0,10.2,3.0,62,52,39,30.07,29.96,13,7,19,0.01
2013-3-26,42.0,35.9,32.0,31.0,24.5,15.0,87,65,42,29.95,29.86,13,5,18,0.00
2013-3-27,49.0,39.2,32.0,33.0,29.9,26.0,89,71,42,29.97,29.90,8,3,14,0.00
2013-3-28,56.0,45.9,36.0,34.0,29.1,25.0,69,53,33,30.04,29.96,13,4,21,0.00
2013-3-29,54.0,47.3,41.0,33.0,29.1,22.0,65,50,28,30.14,30.04,18,7,29,0.00
2013-3-30,54.0,45.8,37.0,32.0,24.8,-99.9,69,47,26,30.18,30.12,12,5,22,0.00
2013-3-31,61.0,49.1,37.0,25.0,21.6,19.0,53,35,20,30.12,29.92,12,6,16,0.00
2013-4-1,53.0,46.9,40.0,38.0,32.2,23.0,88,58,36,29.94,29.88,13,7,18,0.00
2013-4-2,56.0,46.4,40.0,39.0,34.3,23.0,89,66,29,30.03,29.93,13,5,19,0.00
2013-4-3,60.0,49.8,42.0,34.0,26.9,21.0,59,42,24,30.11,30.03,14,7,22,0.00
2013-4-4,61.0,51.7,44.0,35.0,31.0,28.0,63,46,30,30.08,29.88,17,12,27,0.00
2013-4-5,49.0,42.7,38.0,40.0,33.1,25.0,96,71,42,29.96,29.85,23,13,36,0.38
2013-4-6,49.0,41.0,36.0,35.0,30.1,25.0,79,65,49,29.95,29.88,18,9,33,0.04
2013-4-7,45.0,37.0,35.0,36.0,33.0,29.0,97,86,59,29.88,29.65,24,10,37,0.13
2013-4-8,26.0,24.9,24.0,18.0,15.9,14.0,70,68,67,29.66,29.61,11,9,26,0.04
2013-4-9,38.0,25.8,18.0,21.0,15.4,12.0,89,67,38,30.03,29.65,15,8,30,0.03
2013-4-10,48.0,37.6,23.0,36.0,21.2,5.0,80,52,34,30.06,29.84,20,8,33,0.01
2013-4-11,47.0,42.7,39.0,37.0,26.5,8.0,93,55,25,29.93,29.83,20,12,27,0.00
2013-4-12,50.0,39.5,28.0,25.0,19.5,13.0,73,47,27,29.96,29.74,14,7,22,0.00
2013-4-13,45.0,38.2,28.0,35.0,18.7,1.0,97,49,25,29.74,29.47,33,17,51,0.09
2013-4-14,37.0,28.5,21.0,13.0,5.6,-1.0,58,38,23,29.75,29.63,15,7,24,0.01
2013-4-15,37.0,28.7,23.0,26.0,19.1,10.0,89,68,36,29.67,29.57,12,6,19,0.00
2013-4-16,34.0,25.1,19.0,23.0,16.3,7.0,91,71,40,29.89,29.63,12,7,22,0.02
2013-4-17,35.0,24.9,16.0,9.0,4.8,0.0,65,44,24,30.09,29.89,17,9,28,0.01
2013-4-18,43.0,32.1,23.0,18.0,6.2,-4.0,48,33,25,30.19,30.09,15,7,23,0.00
2013-4-19,40.0,35.8,33.0,37.0,27.2,17.0,98,73,46,30.14,29.91,14,8,22,0.10
2013-4-20,46.0,41.7,36.0,39.0,29.2,24.0,100,64,43,30.03,29.95,25,17,36,0.48
2013-4-21,51.0,42.8,35.0,28.0,23.3,14.0,65,47,24,30.04,29.89,25,12,38,0.01
2013-4-22,43.0,33.5,25.0,28.0,20.0,6.0,92,60,29,30.12,29.88,16,10,27,0.00
2013-4-23,40.0,31.1,20.0,10.0,4.0,-5.0,59,34,15,30.15,30.02,11,5,19,0.00
2013-4-24,49.0,42.0,31.0,15.0,9.4,4.0,33,26,19,30.19,30.05,11,4,20,0.00
2013-4-25,57.0,47.0,35.0,18.0,10.7,3.0,42,25,12,30.05,29.94,17,9,26,0.00
2013-4-26,61.0,51.9,42.0,24.0,17.2,10.0,32,25,16,30.22,30.03,16,6,23,0.00
2013-4-27,66.0,55.8,44.0,28.0,22.9,17.0,40,28,17,30.23,30.06,19,9,28,0.00
2013-4-28,59.0,53.8,48.0,25.0,21.2,17.0,34,28,22,30.08,29.91,27,15,48,0.00
2013-4-29,55.0,49.1,45.0,33.0,24.9,17.0,49,39,31,29.93,29.71,30,17,44,0.00
2013-4-30,46.0,36.7,27.0,27.0,12.6,3.0,94,39,19,29.97,29.72,24,15,37,0.00
2013-5-1,44.0,32.2,21.0,26.0,13.1,-1.0,94,53,16,30.48,29.97,13,6,21,0.02
2013-5-2,55.0,43.8,33.0,16.0,9.9,3.0,34,25,14,30.55,30.32,11,4,16,0.01
2013-5-3,61.0,49.8,40.0,29.0,14.1,7.0,54,25,13,30.31,29.99,15,9,23,0.00
2013-5-4,56.0,46.8,40.0,38.0,32.4,28.0,75,57,36,29.99,29.92,19,6,28,0.02
2013-5-5,63.0,52.1,43.0,35.0,30.8,28.0,70,46,27,29.95,29.86,22,10,32,0.02
2013-5-6,64.0,53.8,46.0,42.0,32.3,27.0,74,46,25,29.91,29.86,19,8,38,0.02
2013-5-7,51.0,46.0,43.0,45.0,40.7,37.0,96,82,62,29.97,29.88,17,8,25,0.04
2013-5-8,61.0,49.5,41.0,45.0,39.1,33.0,82,68,51,30.10,29.95,14,5,24,0.22
2013-5-9,66.0,56.5,48.0,44.0,37.0,30.0,66,49,27,30.16,30.08,12,4,25,0.02
2013-5-10,70.0,58.3,48.0,39.0,29.2,-99.9,68,39,16,30.26,30.16,11,4,21,0.02
2013-5-11,72.0,64.0,53.0,36.0,26.9,-99.9,35,25,17,30.30,30.21,12,4,23,0.00
2013-5-12,77.0,67.2,55.0,35.0,30.0,24.0,35,25,17,30.26,30.13,15,7,23,0.00
2013-5-13,79.0,69.1,60.0,40.0,33.0,26.0,35,27,18,30.17,29.99,15,9,24,0.00
2013-5-14,70.0,62.9,55.0,41.0,33.8,21.0,52,34,18,30.08,29.94,16,8,26,0.00
2013-5-15,70.0,63.5,58.0,35.0,31.7,27.0,38,30,23,29.99,29.84,20,6,30,0.00
2013-5-16,62.0,52.0,47.0,41.0,23.2,-99.9,74,53,39,29.90,29.83,16,6,32,0.00
2013-5-17,49.0,45.8,44.0,46.0,39.2,-99.9,97,86,68,29.91,29.83,13,6,18,0.17
2013-5-18,55.0,46.1,41.0,43.0,36.4,26.0,96,73,37,29.97,29.89,16,10,26,0.21
2013-5-19,50.0,42.2,37.0,41.0,36.0,27.0,96,80,52,30.08,29.96,14,7,20,0.21
2013-5-20,59.0,48.7,41.0,45.0,40.0,34.0,98,75,46,30.14,30.06,12,7,18,0.10
2013-5-21,63.0,54.4,45.0,46.0,38.6,34.0,82,57,37,30.07,29.71,15,10,26,0.01
2013-5-22,57.0,45.2,36.0,35.0,27.2,16.0,61,49,38,29.86,29.67,20,11,34,0.00
2013-5-23,57.0,42.7,30.0,37.0,28.1,19.0,88,58,39,29.93,29.75,20,6,30,0.00
2013-5-24,61.0,49.0,36.0,32.0,21.8,11.0,80,38,14,30.03,29.90,15,9,29,0.00
2013-5-25,61.0,53.6,43.0,36.0,24.8,12.0,51,33,21,29.93,29.84,16,6,23,0.00
2013-5-26,64.0,56.3,48.0,37.0,29.0,19.0,64,36,26,29.95,29.85,15,4,23,0.00
2013-5-27,59.0,49.1,41.0,37.0,32.1,27.0,76,54,32,29.98,29.84,15,8,27,0.00
2013-5-28,49.0,43.3,40.0,43.0,40.1,36.0,98,89,65,29.86,29.72,15,6,24,0.27
2013-5-29,55.0,46.7,41.0,40.0,36.1,26.0,92,68,36,29.78,29.72,22,12,30,0.20
2013-5-30,55.0,46.3,38.0,36.0,29.1,18.0,83,54,26,29.96,29.78,23,13,33,0.00
2013-5-31,58.0,47.7,37.0,34.0,27.4,16.0,73,48,27,30.20,29.96,14,9,23,0.00
2013-6-1,67.0,55.9,43.0,37.0,27.1,15.0,44,33,25,30.21,30.03,13,5,19,0.00
2013-6-2,75.0,62.7,52.0,39.0,29.7,22.0,40,29,19,30.03,29.73,20,12,30,0.00
2013-6-3,62.0,51.6,40.0,36.0,28.6,18.0,68,43,24,30.00,29.79,23,7,38,0.00
2013-6-4,64.0,55.2,46.0,37.0,28.8,19.0,50,37,26,30.10,29.97,12,4,19,0.00
2013-6-5,69.0,61.4,52.0,40.0,31.3,24.0,44,33,23,30.14,30.06,11,4,17,0.00
2013-6-6,73.0,64.5,53.0,45.0,35.4,25.0,47,35,23,30.10,30.03,13,3,29,0.00
2013-6-7,76.0,67.0,58.0,44.0,37.9,32.0,52,35,22,30.05,29.87,22,9,35,0.00
2013-6-8,73.0,64.5,54.0,44.0,35.2,22.0,59,36,17,30.06,29.90,18,8,28,0.00
2013-6-9,81.0,70.3,57.0,42.0,35.4,30.0,43,28,20,30.06,29.91,14,7,23,0.00
2013-6-10,84.0,74.1,64.0,49.0,31.8,14.0,44,24,8,29.93,29.75,19,8,30,0.00
2013-6-11,74.0,66.0,59.0,45.0,36.5,19.0,46,35,13,30.01,29.78,17,8,30,0.00
2013-6-12,66.0,61.9,59.0,49.0,42.2,37.0,68,49,37,30.08,29.93,19,5,33,0.00
2013-6-13,65.0,56.0,49.0,46.0,37.7,28.0,84,52,32,30.04,29.91,20,8,32,0.00
2013-6-14,58.0,49.0,38.0,36.0,28.1,17.0,72,46,26,30.16,30.04,19,10,27,0.00
2013-6-15,74.0,61.0,46.0,34.0,24.0,6.0,39,25,10,30.11,30.01,8,3,13,0.00
2013-6-16,79.0,69.5,59.0,41.0,27.9,20.0,34,22,12,30.06,30.00,15,5,24,0.00
2013-6-17,79.0,70.4,58.0,42.0,30.5,22.0,34,23,14,30.09,29.97,18,3,27,0.00
2013-6-18,82.0,73.0,65.0,27.0,20.2,16.0,20,14,9,29.98,29.66,13,6,22,0.00
2013-6-19,70.0,52.6,41.0,36.0,30.5,17.0,72,48,13,30.01,29.63,20,10,31,0.00
2013-6-20,57.0,43.6,36.0,36.0,31.3,23.0,82,64,31,30.03,29.96,12,5,17,0.00
2013-6-21,59.0,57.2,56.0,38.0,34.2,28.0,46,42,34,30.02,30.00,9,6,16,0.00
2013-6-22,60.0,55.0,42.0,40.0,32.3,25.0,70,44,29,30.05,30.01,14,8,25,0.00
2013-6-23,75.0,61.8,45.0,36.0,29.1,25.0,47,30,20,30.01,29.73,13,4,20,0.00
2013-6-24,68.0,59.6,50.0,47.0,39.8,27.0,91,51,24,29.91,29.71,26,8,37,0.00
2013-6-25,67.0,57.0,49.0,52.0,47.4,43.0,95,73,41,30.03,29.91,14,4,22,0.01
2013-6-26,75.0,65.4,55.0,53.0,47.9,45.0,76,55,38,30.18,30.02,12,3,18,0.01
2013-6-27,84.0,77.9,68.0,53.0,42.6,36.0,49,30,21,30.30,30.18,9,3,16,0.00
2013-6-28,89.0,79.9,67.0,49.0,38.3,27.0,42,24,12,30.32,30.19,9,3,18,0.00
2013-6-29,90.0,78.4,67.0,53.0,40.3,25.0,59,28,13,30.20,30.04,20,6,38,0.02
2013-6-30,89.0,77.1,63.0,53.0,42.1,30.0,54,32,13,30.18,30.10,18,5,27,0.02
2013-7-1,91.0,80.4,70.0,48.0,41.9,36.0,38,26,15,30.22,30.14,8,3,14,0.00
2013-7-2,90.0,78.1,70.0,53.0,44.0,35.0,43,30,18,30.22,30.13,10,3,22,0.00
2013-7-3,87.0,75.5,66.0,55.0,46.0,39.0,49,36,19,30.16,30.02,11,4,18,0.00
2013-7-4,83.0,74.3,64.0,57.0,47.9,41.0,68,41,23,30.06,29.89,23,7,33,0.00
2013-7-5,80.0,67.9,58.0,54.0,46.6,40.0,71,48,28,29.96,29.86,18,8,27,0.01
2013-7-6,80.0,65.4,57.0,54.0,47.7,38.0,72,55,28,29.99,29.90,19,12,27,0.07
2013-7-7,83.0,67.8,59.0,53.0,46.3,40.0,70,48,26,30.02,29.93,19,12,29,0.15
2013-7-8,82.0,67.7,60.0,53.0,45.7,34.0,66,49,19,30.12,30.00,17,11,26,0.07
2013-7-9,83.0,76.2,64.0,42.0,34.1,28.0,34,22,15,30.23,30.12,10,4,16,0.00
2013-7-10,90.0,77.9,70.0,42.0,27.2,-99.9,31,17,11,30.16,29.99,10,5,17,0.00
2013-7-11,78.0,68.2,59.0,47.0,33.5,16.0,64,35,10,30.05,30.00,12,6,20,0.00
2013-7-12,77.0,65.6,58.0,48.0,44.1,37.0,62,47,24,30.05,29.98,12,8,17,0.00
2013-7-13,79.0,68.1,62.0,52.0,43.6,36.0,64,42,21,30.13,30.01,16,9,25,0.02
2013-7-14,82.0,68.5,58.0,51.0,44.2,37.0,64,43,24,30.19,30.09,19,8,28,0.02
2013-7-15,86.0,72.9,63.0,54.0,42.3,37.0,64,35,19,30.12,29.98,13,5,21,0.10
2013-7-16,84.0,73.6,67.0,56.0,49.0,39.0,67,43,24,30.11,29.99,17,6,25,0.01
2013-7-17,85.0,71.8,63.0,55.0,50.8,44.0,66,49,31,30.18,30.10,13,6,22,0.01
2013-7-18,86.0,73.2,62.0,52.0,44.0,23.0,67,40,14,30.22,30.12,13,5,21,0.00
2013-7-19,88.0,82.0,73.0,36.0,28.1,21.0,20,14,10,30.16,30.03,11,4,19,0.00
2013-7-20,88.0,77.6,63.0,40.0,28.5,20.0,30,17,10,30.08,29.93,18,6,24,0.00
2013-7-21,85.0,76.7,65.0,31.0,22.2,13.0,21,14,7,30.01,29.94,15,8,27,0.00
2013-7-22,87.0,77.8,67.0,22.0,16.8,13.0,14,10,7,30.07,29.98,20,8,29,0.00
2013-7-23,85.0,75.1,64.0,28.0,19.5,7.0,19,13,7,30.16,30.07,11,3,16,0.00
2013-7-24,84.0,77.9,73.0,29.0,25.4,13.0,17,15,9,30.11,30.06,11,5,17,0.00
2013-7-25,85.0,73.9,65.0,40.0,32.0,27.0,31,22,14,30.17,30.07,15,5,20,0.00
2013-7-26,88.0,76.9,65.0,34.0,29.5,27.0,27,18,12,30.25,30.11,8,3,16,0.00
2013-7-27,75.0,67.2,61.0,55.0,43.4,32.0,77,44,21,30.16,30.00,13,6,19,0.09
2013-7-28,74.0,64.7,58.0,51.0,46.7,37.0,72,53,26,30.01,29.93,18,10,26,0.09
2013-7-29,77.0,64.9,59.0,50.0,42.5,34.0,60,46,27,30.07,29.95,20,12,29,0.00
2013-7-30,82.0,71.2,62.0,48.0,40.0,31.0,54,35,16,30.21,30.07,15,8,25,0.00
2013-7-31,86.0,74.5,62.0,45.0,36.3,28.0,44,26,13,30.22,30.04,12,5,25,0.00
2013-8-1,84.0,73.6,68.0,39.0,34.8,25.0,33,25,16,30.05,29.86,15,9,23,0.00
2013-8-2,74.0,61.1,52.0,35.0,30.6,20.0,50,34,16,30.08,29.94,17,7,25,0.00
2013-8-3,79.0,68.2,55.0,30.0,25.7,21.0,31,21,15,30.13,30.03,10,5,14,0.00
2013-8-4,84.0,74.5,61.0,32.0,25.1,18.0,27,17,9,30.13,30.04,13,5,19,0.00
2013-8-5,85.0,74.2,62.0,36.0,22.8,19.0,22,15,9,30.08,29.98,13,5,22,0.00
2013-8-6,83.0,73.4,63.0,39.0,27.4,19.0,29,19,11,30.09,30.01,13,6,22,0.00
2013-8-7,85.0,74.3,61.0,34.0,24.1,18.0,25,16,9,30.07,29.98,14,3,19,0.00
2013-8-8,86.0,69.6,59.0,48.0,36.9,22.0,65,33,15,30.06,29.98,18,9,31,0.19
2013-8-9,83.0,69.4,58.0,44.0,35.0,20.0,59,32,11,30.08,29.99,11,7,17,0.03
2013-8-10,85.0,72.7,64.0,35.0,29.0,19.0,32,21,10,30.12,30.04,15,10,22,0.00
2013-8-11,84.0,72.8,66.0,37.0,26.0,13.0,31,19,7,30.13,30.03,17,9,28,0.00
2013-8-12,83.0,71.8,66.0,34.0,28.3,22.0,27,20,13,30.12,30.05,20,9,29,0.00
2013-8-13,84.0,69.1,63.0,40.0,30.2,-99.9,33,25,12,30.18,30.10,17,10,27,0.00
2013-8-14,86.0,70.7,61.0,32.0,27.0,17.0,32,22,9,30.15,30.06,13,6,18,0.00
2013-8-15,89.0,64.3,69.0,23.0,-6.9,-99.9,17,9,6,30.14,30.06,12,5,18,0.00
2013-8-16,90.0,75.8,70.0,30.0,16.0,-99.9,13,11,9,30.14,30.07,13,9,19,0.00
2013-8-17,87.0,78.5,72.0,34.0,24.0,-99.9,22,14,10,30.15,30.04,12,6,18,0.00
2013-8-19,86.0,70.7,67.0,37.0,19.6,-99.9,27,19,15,30.18,30.06,12,5,19,0.00
2013-8-20,84.0,73.4,67.0,48.0,38.4,-99.9,49,31,16,30.11,30.05,11,7,18,0.00
2013-8-21,75.0,66.8,61.0,57.0,47.2,41.0,80,50,34,30.17,30.09,11,4,16,0.05
2013-8-22,84.0,71.8,61.0,51.0,45.3,39.0,65,42,20,30.18,30.01,12,5,18,0.02
2013-8-23,78.0,66.5,56.0,50.0,44.7,41.0,76,47,30,30.06,29.97,17,10,26,0.00
2013-8-24,79.0,64.4,55.0,52.0,44.4,-99.9,80,54,25,30.07,29.95,15,11,24,0.00
2013-8-25,80.0,68.7,58.0,49.0,42.9,37.0,64,42,22,30.13,30.01,19,9,26,0.00
2013-8-26,76.0,66.8,57.0,52.0,47.9,44.0,75,52,33,30.16,30.06,13,9,21,0.04
2013-8-27,73.0,65.1,60.0,51.0,48.6,47.0,65,56,41,30.13,30.10,13,10,18,0.00
2013-8-29,82.0,73.4,63.0,57.0,47.2,41.0,59,40,29,30.20,30.14,14,6,22,0.30
2013-8-30,82.0,74.2,65.0,49.0,41.2,30.0,47,31,20,30.20,30.11,12,6,19,0.30
2013-8-31,82.0,74.9,66.0,35.0,22.2,-99.9,25,15,10,30.16,30.08,10,4,14,0.00
2013-9-1,85.0,79.4,67.0,40.0,30.7,19.0,30,17,12,30.11,30.00,12,4,16,0.00
2013-9-2,75.0,64.9,60.0,63.0,54.8,39.0,98,75,28,30.11,30.01,10,5,15,0.49
2013-9-3,78.0,63.9,55.0,60.0,54.6,51.0,95,74,42,30.18,30.10,13,5,21,0.33
2013-9-4,81.0,68.1,57.0,58.0,52.9,48.0,88,62,32,30.25,30.16,11,4,15,0.10
2013-9-5,82.0,71.9,62.0,55.0,49.4,42.0,71,47,27,30.21,30.06,13,8,20,0.00
2013-9-6,72.0,66.9,57.0,56.0,49.8,46.0,79,55,44,30.16,30.08,13,8,17,0.19
2013-9-7,73.0,62.7,57.0,54.0,46.5,-99.9,77,59,35,30.16,30.09,13,6,26,0.15
2013-9-8,68.0,60.6,56.0,56.0,51.0,47.0,85,71,55,30.09,29.96,15,8,21,0.15
2013-9-9,69.0,59.6,51.0,50.0,40.9,34.0,71,52,27,30.04,29.98,12,4,20,0.06
2013-9-10,75.0,64.5,51.0,45.0,41.8,37.0,61,44,29,30.08,30.02,10,3,14,0.00
2013-9-11,73.0,66.2,62.0,49.0,45.8,43.0,59,48,35,30.14,30.09,15,8,19,0.00
2013-9-12,72.0,63.9,56.0,53.0,48.6,43.0,91,59,41,30.17,30.04,20,9,31,0.21
2013-9-13,67.0,60.0,55.0,53.0,49.1,44.0,86,67,54,30.07,29.91,11,4,17,0.04
2013-9-14,71.0,59.2,54.0,53.0,45.6,-99.9,87,65,41,29.98,29.92,10,2,17,0.00
2013-9-15,70.0,61.6,56.0,58.0,49.7,46.0,81,66,43,30.06,29.98,12,6,17,0.09
2013-9-16,78.0,66.2,57.0,52.0,45.6,36.0,74,51,26,30.04,29.91,15,10,22,0.01
2013-9-17,76.0,64.5,54.0,49.0,42.4,35.0,77,46,23,29.94,29.66,17,8,28,0.04
2013-9-18,57.0,46.4,42.0,42.0,36.7,29.0,87,70,43,30.05,29.75,19,9,32,0.07
2013-9-19,59.0,50.0,38.0,35.0,30.6,27.0,65,48,32,30.15,30.05,8,3,16,0.02
2013-9-20,69.0,62.2,48.0,29.0,23.5,18.0,46,24,14,30.09,29.85,15,9,23,0.00
2013-9-21,73.0,63.8,55.0,33.0,25.5,-99.9,41,25,15,29.85,29.58,15,9,24,0.00
2013-9-22,57.0,48.0,42.0,39.0,35.3,31.0,80,62,42,29.81,29.61,19,13,28,0.00
2013-9-23,59.0,50.0,44.0,37.0,33.1,30.0,72,53,33,30.02,29.81,20,12,33,0.00
2013-9-24,65.0,53.9,47.0,37.0,30.9,25.0,58,43,22,30.01,29.72,18,11,26,0.00
2013-9-25,47.0,40.3,36.0,38.0,34.6,29.0,95,80,59,29.75,29.55,19,7,29,0.12
2013-9-26,41.0,35.8,32.0,33.0,30.2,28.0,91,81,62,29.81,29.67,8,3,14,0.01
2013-10-1,58.0,51.7,46.0,35.0,33.3,32.0,62,50,42,29.96,29.90,17,9,24,0.00
2013-10-2,49.0,43.5,35.0,36.0,30.3,24.0,79,60,43,30.00,29.76,14,7,22,0.00
2013-10-3,40.0,32.8,30.0,33.0,29.3,26.0,96,87,65,29.99,29.77,17,9,27,0.01
2013-10-4,44.0,34.7,28.0,29.0,24.7,21.0,95,69,43,30.31,30.01,11,6,21,0.08
2013-10-5,50.0,40.9,32.0,26.0,22.5,19.0,71,49,35,30.39,30.31,10,4,16,0.01
2013-10-6,61.0,47.9,33.0,27.0,24.5,21.0,71,42,23,30.36,30.14,17,8,23,0.00
2013-10-7,66.0,53.7,45.0,28.0,23.9,20.0,45,32,20,30.14,29.84,18,11,28,0.00
2013-10-8,52.0,43.1,36.0,28.0,23.3,16.0,62,47,26,29.85,29.80,16,7,26,0.00
2013-10-9,59.0,44.5,32.0,40.0,27.7,21.0,93,55,29,29.80,29.70,16,4,24,0.06
2013-10-10,46.0,41.1,36.0,39.0,33.2,23.0,92,74,49,29.78,29.64,15,9,23,0.07
2013-10-11,46.0,38.6,32.0,29.0,26.1,24.0,77,61,42,29.98,29.78,14,5,21,0.00
2013-10-12,52.0,42.6,36.0,30.0,25.8,-99.9,72,54,37,29.98,29.86,14,9,21,0.00
2013-10-13,46.0,39.2,37.0,40.0,36.3,28.0,99,91,50,29.98,29.84,11,5,19,0.27
2013-10-14,38.0,34.3,32.0,38.0,33.6,30.0,99,97,88,30.17,29.98,12,7,20,0.04
2013-10-15,44.0,35.2,29.0,32.0,25.1,16.0,94,68,42,30.19,30.13,7,3,14,0.01
2013-10-16,47.0,38.9,32.0,27.0,23.6,17.0,68,55,31,30.14,30.03,14,5,19,0.01
2013-10-18,46.0,39.3,32.0,24.0,20.5,17.0,60,47,33,30.19,30.09,8,3,15,0.00
2013-10-19,55.0,44.0,34.0,26.0,20.4,-99.9,64,42,26,30.14,29.99,13,7,19,0.00
2013-10-20,53.0,44.3,37.0,28.0,24.9,22.0,59,46,33,30.06,29.96,10,3,15,0.00
2013-10-21,55.0,48.5,39.0,33.0,29.8,25.0,65,48,37,30.17,30.06,8,4,12,0.00
2013-10-22,61.0,51.6,41.0,31.0,29.0,28.0,61,43,28,30.21,30.11,11,4,17,0.00
2013-10-23,62.0,56.3,44.0,31.0,27.8,23.0,52,34,23,30.13,30.08,7,4,11,0.00
2013-10-24,63.0,58.7,54.0,30.0,27.7,24.0,36,30,25,30.12,30.06,7,3,11,0.00
2013-10-25,59.0,55.0,50.0,30.0,26.1,23.0,40,33,26,30.22,30.17,8,4,12,0.00
2013-10-26,61.0,53.3,43.0,29.0,21.6,-99.9,55,31,22,30.28,30.14,8,4,12,0.00
2013-10-27,59.0,50.6,41.0,26.0,22.4,16.0,53,34,19,30.11,29.57,16,9,23,0.00
2013-10-28,55.0,47.1,36.0,35.0,27.0,-99.9,92,51,26,29.66,29.44,16,9,24,0.17
2013-10-29,41.0,36.0,33.0,35.0,32.1,29.0,92,86,75,29.84,29.65,12,5,18,0.04
2013-10-30,33.0,32.2,30.0,31.0,27.9,26.0,94,84,77,29.97,29.83,19,11,26,0.00
2013-11-7,45.0,40.6,35.0,27.0,24.0,22.0,64,52,40,30.27,29.84,19,13,30,0.00
2013-11-8,47.0,39.9,35.0,33.0,22.1,8.0,74,50,27,30.03,29.84,23,13,35,0.00
2013-11-9,52.0,40.4,31.0,30.0,20.9,-99.9,64,48,37,30.14,30.01,8,3,12,0.00
2013-11-10,55.0,48.1,39.0,30.0,25.9,22.0,69,43,31,30.18,30.14,17,10,22,0.00
2013-11-11,58.0,52.7,44.0,24.0,22.0,20.0,44,30,25,30.34,30.16,14,5,21,0.00
2013-11-12,59.0,52.2,43.0,23.0,19.1,17.0,45,27,20,30.38,30.29,17,11,27,0.00
2013-11-13,49.0,44.4,35.0,35.0,25.6,20.0,80,49,31,30.30,30.14,16,6,24,0.00
2013-12-3,22.0,11.1,0.0,19.0,5.0,-11.0,89,76,59,29.62,29.48,19,9,29,0.01
2013-12-4,5.0,0.0,-4.0,-9.0,-12.3,-16.0,61,55,49,29.84,29.61,9,4,14,0.00
2013-12-5,8.0,3.3,-1.0,0.0,-5.2,-12.0,76,67,53,29.84,29.78,10,2,15,0.00
2013-12-6,9.0,5.2,2.0,4.0,-0.2,-4.0,81,78,72,29.85,29.74,12,8,19,0.00
2013-12-7,15.0,10.3,4.0,12.0,3.5,-99.9,86,78,60,29.72,29.46,16,10,24,0.00
2013-12-8,3.0,0.0,-7.0,-2.0,-6.0,-13.0,79,75,65,29.98,29.69,19,12,25,0.00
2013-12-9,6.0,-0.2,-8.0,-1.0,-7.1,-14.0,77,72,64,30.22,29.99,20,10,28,0.00